Weather Service Report


373 
ASUS41 KBTV 292110
RWRBTV
VERMONT REGIONAL WEATHER ROUNDUP
NATIONAL WEATHER SERVICE BURLINGTON VT
500 PM EDT SAT APR 29 2017

NOTE: "FAIR" INDICATES FEW OR NO CLOUDS BELOW 12,000 FEET WITH NO 
SIGNIFICANT WEATHER AND/OR OBSTRUCTIONS TO VISIBILITY.

* THESE REPORTS ARE NOT UNDER NWS QUALITY CONTROL AND/OR DO NOT
  REPORT WEATHER SUCH AS PRECIPITATION AND FOG.

VTZ001>019-292200-
_____VERMONT_____

  
CITY           SKY/WX    TMP DP  RH WIND       PRES   REMARKS
BURLINGTON     PTSUNNY   72  41  32 W15G23    29.91R                  
MONTPELIER     MOSUNNY   69  45  41 W16G28    29.94R                  
MORRISVILLE    MOSUNNY   67  42  40 NW12G20   29.91S                  
LYNDONVILLE*   FAIR      68  43  41 W16G24    29.89S                  
MIDDLEBURY*    CLOUDY    70  45  40 W7        29.94R                  
RUTLAND*       CLOUDY    69  48  47 NW15      29.95R                  
SPRINGFIELD    CLOUDY    71  47  42 W16G25    29.92R                  
HIGHGATE*      FAIR      66  40  39 N10G23    29.92R                  
NEWPORT*       FAIR      64  43  46 NW17G28   29.90S                  
BENNINGTON     CLOUDY    64  47  53 SW12G18   30.03R                  
SUTTON*          N/A     64 N/A N/A MISG        N/A                   

_____LAKE CHAMPLAIN_____

  
CITY           SKY/WX    TMP DP  RH WIND       PRES   REMARKS
BURTON ISLAND*   N/A     59  43  55 NW10        N/A                   
COLCHESTER RF*   N/A     63  41  45 NW22G28     N/A                   

$$

NYZ007-026>031-035-052-083-087-292200-
_____NORTHERN NEW YORK_____

  
CITY           SKY/WX    TMP DP  RH WIND       PRES   REMARKS
PLATTSBURGH    PTSUNNY   72  39  30 NW12G23   29.91R                  
SARANAC LAKE   MOSUNNY   62  41  46 W13G24    29.97R                  
MASSENA        CLOUDY    63  35  35 NW18G29   30.01R                  
OGDENSBURG*    FAIR      64  43  47 SW17G24   30.02R                  
POTSDAM*       SUNNY     64  48  55 W20G29    30.01R                  
WATERTOWN      CLOUDY    49  38  65 SW18G29   30.11R                  
ALBANY         CLOUDY    66  48  52 W13G25    30.05R                  
GLENS FALLS    CLOUDY    69  45  41 SW15G21   29.98R                  

$$
NHZ002-005-011-292200-
_____NEW HAMPSHIRE_____

  
CITY           SKY/WX    TMP DP  RH WIND       PRES   REMARKS
LEBANON        CLOUDY    72  48  42 W15G25    29.90R                  
KEENE          CLOUDY    73  53  49 W13G18    29.93R                  
MT WASHINGTON  PTSUNNY   43  39  87 W59G69      N/A  WCI  29          
PLYMOUTH       FAIR      73  45  36 W16G25    29.85R                  
WHITEFIELD     CLOUDY    70  43  37 W15G23    29.85S                  

$$

_____REGIONAL QUEBEC LOCATIONS_____

  
CITY           SKY/WX    TMP DP  RH WIND       PRES   REMARKS
MONTREAL       MOSUNNY   64  34  32 W21G29    29.93R                  
QUEBEC CITY    MOSUNNY   55  28  35 NW25G35   29.87R                  
SHERBROOKE     SUNNY     64  34  32 W30G44    29.85R                  

_____REGIONAL ONTARIO LOCATIONS_____

  
CITY           SKY/WX    TMP DP  RH WIND       PRES   REMARKS
OTTAWA         MOSUNNY   57  28  33 W25G31    30.05R                  

______KEY______
VSB  - VISIBILITY IN MILES
WCI  - WIND CHILL INDEX
HX   - HEAT INDEX
$$
NNNN
  

Return to Home page


Western Regional Climate Center, wrcc@dri.edu